Regional Weather Roundup
Issued by NWS

Home | Current Version | Previous Version | Text Only | Print | Product List | Glossary Off
Versions: 1 2 3 4 5 6 7 8 9 10 11 12 13 14 15 16 17 18 19 20 21 22 23 24 25 26 27 28 29 30 31 32 33 34 35 36 37 38 39 40 41 42 43 44 45 46 47 48 49 50

000
ASUS45 KCYS 180910
RWRWY

WYOMING REGIONAL WEATHER ROUNDUP
NATIONAL WEATHER SERVICE CHEYENNE WY
300 AM MDT THU SEP 18 2014

NOTE:  "FAIR" INDICATES FEW OR NO CLOUDS BELOW 12,000 FEET
WITH NO SIGNIFICANT WEATHER AND/OR OBSTRUCTIONS TO VISIBILITY.

WYZ001-181000-
YELLOWSTONE NATIONAL PARK

CITY           SKY/WX    TMP DP  RH WIND       PRES   REMARKS
LK YELLOWSTONE   N/A     42  38  85 CALM      30.17F
W YELLOWSTONE  NOT AVBL

$$
WYZ002>013-054>058-071-098>099-181000-
NORTHERN WYOMING

CITY           SKY/WX    TMP DP  RH WIND       PRES   REMARKS
JACKSON        PTCLDY    45  39  81 NE3       30.09F
CODY             N/A    N/A N/A N/A MISG        N/A
GREYBULL       CLEAR     55  48  77 SE5       29.91F
WORLAND        CLEAR     54  45  71 SW5       29.94S
SHERIDAN       PTCLDY    56  46  69 CALM      29.88F
BUFFALO        LGT RAIN  64  39  39 SW7       29.97F
GILLETTE       PTCLDY    61  50  67 S14       29.93F
HULETT         FAIR      61  46  59 MISG      29.94
NEWCASTLE      FAIR      55  45  67 CALM      29.97

$$
WYZ014>020-022>026-101>103-181000-
CENTRAL WYOMING

CITY           SKY/WX    TMP DP  RH WIND       PRES   REMARKS
BIG PINEY      PTCLDY    40  37  89 N5        30.15F
PINEDALE       MOSUNNY   39  36  87 W6        30.16F WCI  35
DUBOIS         FAIR      46  36  66 NW9       30.15F
LANDER         CLEAR     57  38  48 NW5       30.01F
RIVERTON       CLEAR     53  41  63 NW10      30.03F
CASPER         CLEAR     52  37  56 W7        30.02F
DOUGLAS        CLEAR     47  41  80 CALM      30.02S

$$
WYZ021-027>030-104>119-181000-
SOUTHERN WYOMING

CITY           SKY/WX    TMP DP  RH WIND       PRES   REMARKS
EVANSTON       PTCLDY    60  37  42 S5        30.13F
KEMMERER       SUNNY     50  37  62 N8        30.15F
FORT BRIDGER   FAIR      55  39  55 S7        30.16S
ROCK SPRINGS   CLEAR     53  34  48 S6        30.12F
DIXON          FAIR      48  40  74 CALM      30.16S
RAWLINS        CLEAR     46  36  68 CALM      30.14F
SARATOGA       FAIR      48  37  66 CALM      30.17F
LARAMIE        CLEAR     44  37  76 S8        30.18S
CHEYENNE       CLEAR     53  40  61 W9        30.10F
TORRINGTON     CLEAR     50  45  83 CALM      29.96F
PINE BLUFFS    FAIR      46  41  81 W5        30.04F

$$



USA.gov is the U.S. government's official web portal to all federal, state and local government web resources and services.